Thedford, NE

8:41 PM CST on February 07, 2016 (GMT -0600)
Thedford

Weather History for KTIF - May, 2014

Change the Weather History Date:

Wednesday, May 7, 2014

  Actual Average (KLBF) Record (KLBF)
Temperature  
Mean Temperature 59 °F 55 °F  
Max Temperature 71 °F 69 °F 95 °F (1966)
Min Temperature 48 °F 41 °F 24 °F (1976)
Degree Days  
Heating Degree Days 6 10  
Month to date heating degree days 79  
Since 1 July heating degree days 6469  
Cooling Degree Days 0 0  
Month to date cooling degree days 0  
Year to date cooling degree days 3  
Growing Degree Days 9 (Base 50)    
Moisture  
Dew Point 47 °F    
Average Humidity 65    
Maximum Humidity 87    
Minimum Humidity 46    
Precipitation  
Precipitation 0.08 in 0.09 in 1.17 in (1936)
Month to date precipitation 0.64  
Year to date precipitation 4.80  
Snow  
Snow 0.00 in 0.00 in 0.20 in (1984)
Month to date snowfall 0.0  
Since 1 July snowfall 28.5  
Snow Depth -    
Sea Level Pressure  
Sea Level Pressure 29.65 in    
Wind  
Wind Speed 10 mph (North)    
Max Wind Speed 30 mph    
Max Gust Speed 40 mph    
Visibility 10 miles    
Events Rain , Thunderstorm    
T = Trace of Precipitation, MM = Missing Value Source: NWS Daily Summary

Daily Weather History Graph

Daily Weather History Graph

Search for Another Location

Airport or City:

Trip Planner

Search our weather history database for the weather conditions in past years. The results will help you decide how hot, cold, wet, or windy it might be!

Date:

Astronomy

May. 07, 2014 Rise Set
Actual Time 6:30 AM CDT 8:47 PM CDT
Civil Twilight 5:59 AM CDT 9:18 PM CDT
Nautical Twilight 5:21 AM CDT 9:57 PM CDT
Astronomical Twilight 4:39 AM CDT 10:39 PM CDT
Moon 1:47 PM CDT (5/7) 2:37 AM CDT (5/7)
Length of Visible Light 15h 19m
Length of Day
14h 16m
First Quarter, 55% of the Moon is Illuminated
May 7
First Quarter
May 14
Full
May 21
Last Quarter
May 28
New
Jun 5
First Quarter

Hourly Weather History & Observations

Time (CDT) Temp. Dew Point Humidity Pressure Visibility Wind Dir Wind Speed Gust Speed Precip Events Conditions
12:10 AM 55.4 °F 46.4 °F 72% 29.59 in 10.0 mi East 5.8 mph - N/A   Clear
12:35 AM 54.0 °F 46.4 °F 76% 29.60 in 10.0 mi Calm Calm - N/A   Clear
1:15 AM 52.9 °F 46.4 °F 79% 29.60 in 10.0 mi NNE 4.6 mph - N/A   Clear
1:35 AM 53.6 °F 46.4 °F 77% 29.60 in 10.0 mi NNW 5.8 mph - N/A   Clear
1:55 AM 53.2 °F 46.4 °F 78% 29.60 in 10.0 mi North 8.1 mph - N/A   Clear
2:15 AM 52.7 °F 46.4 °F 79% 29.60 in 10.0 mi NNW 9.2 mph - N/A   Clear
2:35 AM 53.1 °F 46.4 °F 78% 29.60 in 10.0 mi NNW 8.1 mph - N/A   Clear
2:55 AM 53.2 °F 46.4 °F 78% 29.60 in 10.0 mi NNW 10.4 mph - N/A   Clear
3:15 AM 52.9 °F 46.4 °F 79% 29.61 in 10.0 mi NW 10.4 mph - N/A   Scattered Clouds
3:35 AM 54.5 °F 46.6 °F 75% 29.61 in 10.0 mi NNW 8.1 mph - N/A   Overcast
3:55 AM 55.4 °F 47.3 °F 74% 29.62 in 10.0 mi NNW 10.4 mph - N/A   Overcast
4:15 AM 55.4 °F 46.6 °F 72% 29.61 in 10.0 mi North 4.6 mph - N/A   Scattered Clouds
4:35 AM 55.2 °F 46.6 °F 73% 29.61 in 10.0 mi Calm Calm - N/A Thunderstorm Clear
4:55 AM 55.0 °F 46.4 °F 73% 29.60 in 10.0 mi NE 4.6 mph - N/A   Clear
5:15 AM 54.9 °F 46.4 °F 73% 29.59 in 10.0 mi NNE 6.9 mph - N/A   Clear
5:35 AM 54.0 °F 46.4 °F 76% 29.61 in 10.0 mi WNW 5.8 mph - N/A   Clear
5:55 AM 53.1 °F 46.0 °F 77% 29.61 in 10.0 mi WNW 4.6 mph - N/A   Clear
6:15 AM 53.6 °F 45.9 °F 75% 29.63 in 10.0 mi WNW 9.2 mph - N/A   Clear
6:35 AM 53.6 °F 45.7 °F 75% 29.63 in 10.0 mi NW 9.2 mph - N/A   Scattered Clouds
6:55 AM 54.5 °F 45.5 °F 72% 29.61 in 10.0 mi NNE 5.8 mph - N/A   Scattered Clouds
7:15 AM 54.1 °F 45.5 °F 73% 29.61 in 10.0 mi ENE 5.8 mph - N/A   Clear
7:35 AM 54.7 °F 46.0 °F 73% 29.64 in 10.0 mi NNW 6.9 mph - N/A   Clear
7:55 AM 55.6 °F 46.2 °F 71% 29.64 in 10.0 mi North 6.9 mph - N/A   Clear
8:15 AM 55.6 °F 45.5 °F 69% 29.64 in 10.0 mi North 12.7 mph 17.3 mph N/A   Clear
8:35 AM 56.5 °F 45.1 °F 66% 29.65 in 10.0 mi North 12.7 mph 17.3 mph N/A   Clear
8:50 AM 57.2 °F 45.0 °F 64% 29.66 in 10.0 mi NNE 9.2 mph 16.1 mph N/A   Clear
9:15 AM 59.0 °F 45.5 °F 61% 29.66 in 10.0 mi NNE 11.5 mph 16.1 mph N/A   Clear
9:35 AM 60.8 °F 45.9 °F 58% 29.65 in 10.0 mi NE 13.8 mph 17.3 mph N/A   Clear
9:55 AM 63.0 °F 46.2 °F 54% 29.66 in 10.0 mi NNE 12.7 mph - N/A   Clear
10:15 AM 63.1 °F 46.4 °F 54% 29.65 in 10.0 mi NNE 13.8 mph - N/A   Clear
10:35 AM 65.3 °F 46.8 °F 51% 29.66 in 10.0 mi NNE 13.8 mph 20.7 mph N/A   Clear
10:55 AM 64.9 °F 46.9 °F 52% 29.65 in 10.0 mi North 16.1 mph 20.7 mph N/A   Clear
11:15 AM 65.5 °F 46.8 °F 51% 29.65 in 10.0 mi North 12.7 mph 19.6 mph N/A   Clear
11:35 AM 66.4 °F 47.3 °F 50% 29.66 in 10.0 mi NNE 10.4 mph 16.1 mph N/A   Clear
11:55 AM 67.5 °F 47.7 °F 49% 29.66 in 10.0 mi North 16.1 mph 19.6 mph N/A   Clear
12:15 PM 68.7 °F 48.2 °F 48% 29.66 in 10.0 mi North 15.0 mph 18.4 mph N/A   Clear
12:35 PM 70.2 °F 48.9 °F 47% 29.66 in 10.0 mi NNW 12.7 mph - N/A   Clear
12:55 PM 69.4 °F 48.4 °F 47% 29.66 in 10.0 mi North 11.5 mph 19.6 mph N/A   Scattered Clouds
1:15 PM 69.8 °F 48.6 °F 47% 29.66 in 10.0 mi North 13.8 mph 18.4 mph N/A   Scattered Clouds
1:35 PM 69.3 °F 48.6 °F 48% 29.66 in 10.0 mi North 13.8 mph - N/A   Scattered Clouds
1:55 PM 68.7 °F 48.2 °F 48% 29.67 in 10.0 mi North 15.0 mph 19.6 mph N/A   Mostly Cloudy
2:15 PM 68.0 °F 48.2 °F 49% 29.67 in 10.0 mi North 10.4 mph - N/A   Scattered Clouds
2:35 PM 68.4 °F 48.4 °F 49% 29.67 in 10.0 mi NNE 11.5 mph - N/A   Scattered Clouds
2:55 PM 68.5 °F 48.2 °F 48% 29.67 in 10.0 mi North 9.2 mph - N/A   Scattered Clouds
3:15 PM 70.0 °F 48.4 °F 46% 29.65 in 10.0 mi NNE 12.7 mph 18.4 mph N/A   Scattered Clouds
3:35 PM 70.9 °F 48.9 °F 46% 29.66 in 10.0 mi NE 12.7 mph 17.3 mph N/A   Mostly Cloudy
3:55 PM 69.4 °F 49.1 °F 48% 29.66 in 10.0 mi NE 11.5 mph 18.4 mph N/A   Overcast
4:15 PM 69.8 °F 49.3 °F 48% 29.66 in 10.0 mi NE 15.0 mph - N/A   Overcast
4:35 PM 69.1 °F 49.5 °F 50% 29.66 in 10.0 mi NE 13.8 mph - N/A   Overcast
4:55 PM 68.9 °F 49.8 °F 51% 29.66 in 10.0 mi NE 17.3 mph - N/A   Overcast
5:15 PM 68.4 °F 49.5 °F 51% 29.67 in 10.0 mi NNE 16.1 mph - N/A   Overcast
5:35 PM 68.0 °F 49.3 °F 51% 29.65 in 10.0 mi NNE 16.1 mph 20.7 mph N/A   Overcast
5:55 PM 67.1 °F 48.9 °F 52% 29.65 in 10.0 mi NNE 16.1 mph 20.7 mph N/A   Overcast
6:15 PM 66.4 °F 48.6 °F 53% 29.66 in 10.0 mi NNE 12.7 mph 20.7 mph N/A   Overcast
6:35 PM 65.7 °F 48.4 °F 54% 29.67 in 10.0 mi NE 17.3 mph 20.7 mph N/A   Overcast
6:55 PM 65.3 °F 48.4 °F 54% 29.67 in 10.0 mi NNE 12.7 mph - N/A   Overcast
7:15 PM 64.6 °F 48.4 °F 56% 29.68 in 10.0 mi NNE 13.8 mph 18.4 mph N/A Thunderstorm Overcast
7:35 PM 64.4 °F 48.2 °F 56% 29.71 in 10.0 mi NE 10.4 mph 32.2 mph N/A Thunderstorm Thunderstorm
7:55 PM 61.9 °F 50.9 °F 67% 29.73 in 10.0 mi NNE 8.1 mph - N/A Rain Light Rain
8:15 PM 60.3 °F 51.1 °F 72% 29.79 in 10.0 mi NNW 4.6 mph - N/A Rain , Thunderstorm Rain
8:35 PM 58.1 °F 51.6 °F 79% 29.75 in 5.0 mi NNE 12.7 mph 23.0 mph 0.06 in Rain , Thunderstorm Heavy Thunderstorms and Rain
8:55 PM 57.2 °F 51.4 °F 81% 29.59 in 10.0 mi NE 29.9 mph 36.8 mph 0.08 in Rain , Thunderstorm Light Thunderstorms and Rain
9:15 PM 56.3 °F 50.9 °F 82% 29.62 in 10.0 mi NE 24.2 mph 40.3 mph N/A Thunderstorm Thunderstorm
9:35 PM 55.8 °F 50.9 °F 84% 29.73 in 10.0 mi WNW 16.1 mph 23.0 mph N/A Rain , Thunderstorm Light Thunderstorms and Rain
9:55 PM 54.3 °F 49.8 °F 85% 29.73 in 10.0 mi NW 25.3 mph 34.5 mph N/A Rain Light Rain
10:15 PM 51.8 °F 47.1 °F 84% 29.76 in 10.0 mi NNW 21.9 mph 26.5 mph N/A Thunderstorm Unknown
10:35 PM 50.2 °F 45.7 °F 85% 29.73 in 10.0 mi NNW 23.0 mph 32.2 mph N/A Thunderstorm Overcast
10:55 PM 50.0 °F 45.5 °F 85% 29.76 in 10.0 mi North 13.8 mph 28.8 mph N/A Thunderstorm Overcast
11:15 PM 48.7 °F 45.0 °F 87% 29.70 in 10.0 mi North 18.4 mph 25.3 mph N/A Rain Light Rain
11:35 PM 48.6 °F 44.8 °F 87% 29.67 in 10.0 mi North 18.4 mph 32.2 mph N/A   Scattered Clouds
11:55 PM 48.2 °F 44.4 °F 87% 29.69 in 10.0 mi North 21.9 mph 34.5 mph N/A   Scattered Clouds